 day,  time,  air_temp(C),  RH(%),  ground_temp10cm(C),  ground_temp20cm(C),  ground_temp40cm(C),  precipitation(mm/h),  Solar_Radiation(MJ/m2h),  lack, 
 07/06/01, 01:00,   7.7,  99,  12.0,  12.7,  12.5,   0.0,  0.00, 
 07/06/01, 02:00,   7.4,  99,  12.0,  12.6,  12.4,   0.0,  0.00, 
 07/06/01, 03:00,   7.3,  99,  11.9,  12.6,  12.4,   0.0,  0.00, 
 07/06/01, 04:00,   7.2,  99,  11.8,  12.5,  12.4,   0.0,  0.00, 
 07/06/01, 05:00,   6.9,  99,  11.6,  12.5,  12.4,   0.0,  0.00, 
 07/06/01, 06:00,   7.2,  99,  11.5,  12.4,  12.4,   0.0,  0.03, 
 07/06/01, 07:00,   7.4,  99,  11.4,  12.4,  12.4,   0.0,  0.35, 
 07/06/01, 08:00,   8.3,  99,  11.4,  12.3,  12.4,   0.0,  1.06, 
 07/06/01, 09:00,   8.3,  99,  11.6,  12.2,  12.4,   0.0,  0.52, 
 07/06/01, 10:00,   9.6,  99,  11.9,  12.2,  12.4,   0.0,  1.18, 
 07/06/01, 11:00,  10.9,  92,  12.0,  12.2,  12.4,   0.0,  1.07, 
 07/06/01, 12:00,  13.6,  83,  12.4,  12.2,  12.3,   0.0,  2.20, 
 07/06/01, 13:00,  15.5,  75,  13.0,  12.2,  12.3,   0.0,  3.45, 
 07/06/01, 14:00,  17.1,  71,  13.6,  12.3,  12.2,   0.0,  3.31, 
 07/06/01, 15:00,  17.0,  66,  13.9,  12.5,  12.3,   0.0,  3.07, 
 07/06/01, 16:00,  17.3,  63,  14.1,  12.5,  12.3,   0.0,  2.49, 
 07/06/01, 17:00,  16.2,  64,  14.6,  12.6,  12.3,   0.0,  1.52, 
 07/06/01, 18:00,  15.0,  75,  14.8,  12.9,  12.3,   0.0,  0.85, 
 07/06/01, 19:00,  12.0,  84,  14.8,  13.0,  12.2,   0.0,  0.21, 
 07/06/01, 20:00,  11.2,  91,  14.6,  13.1,  12.2,   0.0,  0.00, 
 07/06/01, 21:00,  10.9,  93,  14.4,  13.2,  12.1,   0.0,  0.00, 
 07/06/01, 22:00,  10.4,  93,  14.1,  13.3,  12.1,   0.0,  0.00, 
 07/06/01, 23:00,   9.9,  97,  13.9,  13.3,  12.2,   0.0,  0.00, 
 07/06/02, 00:00,   8.9,  97,  13.7,  13.3,  12.2,   0.0,  0.00, 
 07/06/02, 01:00,   8.6,  98,  13.5,  13.3,  12.3,   0.0,  0.00, 
 07/06/02, 02:00,   9.4,  90,  13.2,  13.3,  12.3,   0.0,  0.00, 
 07/06/02, 03:00,   8.5,  97,  13.1,  13.3,  12.3,   0.0,  0.00, 
 07/06/02, 04:00,   6.9,  99,  12.9,  13.2,  12.3,   0.0,  0.00, 
 07/06/02, 05:00,   8.0,  99,  12.6,  13.2,  12.3,   0.0,  0.00, 
 07/06/02, 06:00,   8.9,  96,  12.5,  13.1,  12.3,   0.0,  0.13, 
 07/06/02, 07:00,  10.5,  89,  12.4,  13.0,  12.3,   0.0,  0.67, 
 07/06/02, 08:00,  13.6,  73,  12.5,  13.0,  12.3,   0.0,  1.48, 
 07/06/02, 09:00,  14.3,  76,  12.8,  12.8,  12.3,   0.0,  2.29, 
 07/06/02, 10:00,  14.5,  79,  13.4,  12.8,  12.3,   0.0,  2.11, 
 07/06/02, 11:00,  15.6,  75,  13.9,  12.9,  12.3,   0.0,  2.71, 
 07/06/02, 12:00,  16.5,  66,  14.6,  13.0,  12.3,   0.0,  2.08, 
 07/06/02, 13:00,  16.5,  65,  15.1,  13.1,  12.3,   0.0,  1.45, 
 07/06/02, 14:00,  17.9,  60,  15.4,  13.2,  12.4,   0.0,  1.13, 
 07/06/02, 15:00,  16.7,  67,  15.5,  13.4,  12.4,   0.0,  1.75, 
 07/06/02, 16:00,  15.7,  68,  15.6,  13.5,  12.3,   0.0,  1.03, 
 07/06/02, 17:00,  15.9,  70,  15.7,  13.7,  12.3,   0.0,  0.59, 
 07/06/02, 18:00,  14.7,  77,  15.6,  13.8,  12.5,   0.0,  0.35, 
 07/06/02, 19:00,  13.4,  86,  15.5,  13.9,  12.4,   0.0,  0.01, 
 07/06/02, 20:00,  12.3,  87,  15.4,  14.0,  12.5,   0.0,  0.00, 
 07/06/02, 21:00,  11.9,  90,  15.1,  14.0,  12.5,   0.0,  0.00, 
 07/06/02, 22:00,  11.4,  95,  14.9,  14.1,  12.5,   0.0,  0.00, 
 07/06/02, 23:00,  11.1,  98,  14.7,  14.1,  12.4,   0.0,  0.00, 
 07/06/03, 00:00,  10.9,  96,  14.5,  14.1,  12.4,   0.0,  0.00, 
 07/06/03, 01:00,  10.4,  99,  14.4,  14.0,  12.5,   0.0,  0.00, 
 07/06/03, 02:00,  10.0,  99,  14.2,  14.0,  12.5,   0.0,  0.00, 
 07/06/03, 03:00,  10.3,  99,  14.0,  14.0,  12.5,   0.0,  0.00, 
 07/06/03, 04:00,  10.2,  99,  13.9,  13.9,  12.5,   0.0,  0.00, 
 07/06/03, 05:00,   8.4,  99,  13.7,  13.9,  12.5,   0.0,  0.00, 
 07/06/03, 06:00,   9.2,  99,  13.5,  13.8,  12.5,   0.0,  0.22, 
 07/06/03, 07:00,  12.4,  91,  13.4,  13.8,  12.5,   0.0,  0.90, 
 07/06/03, 08:00,  12.8,  90,  13.5,  13.7,  12.6,   0.0,  1.52, 
 07/06/03, 09:00,  14.1,  87,  13.7,  13.6,  12.6,   0.0,  1.71, 
 07/06/03, 10:00,  16.0,  82,  14.1,  13.6,  12.6,   0.0,  2.22, 
 07/06/03, 11:00,  15.5,  84,  14.5,  13.6,  12.6,   0.0,  1.49, 
 07/06/03, 12:00,  14.9,  81,  14.9,  13.6,  12.6,   0.0,  0.75, 
 07/06/03, 13:00,  15.7,  76,  15.1,  13.7,  12.6,   0.0,  0.89, 
 07/06/03, 14:00,  16.4,  76,  15.2,  13.8,  12.6,   0.0,  0.73, 
 07/06/03, 15:00,  14.4,  89,  15.3,  13.9,  12.5,   0.0,  0.33, 
 07/06/03, 16:00,  12.9,  99,  15.3,  14.0,  12.6,   0.0,  0.33, 
 07/06/03, 17:00,  12.8,  99,  15.2,  14.0,  12.5,   0.0,  0.23, 
 07/06/03, 18:00,  13.3,  99,  15.1,  14.1,  12.6,   0.0,  0.36, 
 07/06/03, 19:00,  12.3,  99,  15.1,  14.1,  12.6,   0.0,  0.18, 
 07/06/03, 20:00,  12.3,  99,  14.9,  14.1,  12.6,   0.0,  0.00, 
 07/06/03, 21:00,  11.6,  99,  14.8,  14.1,  12.7,   0.0,  0.00, 
 07/06/03, 22:00,  11.0,  99,  14.6,  14.2,  12.7,   0.0,  0.00, 
 07/06/03, 23:00,  10.7,  99,  14.5,  14.1,  12.7,   0.0,  0.00, 
 07/06/04, 00:00,  10.5,  99,  14.3,  14.1,  12.7,   0.0,  0.00, 
 07/06/04, 01:00,  10.2,  99,  14.2,  14.1,  12.7,   0.0,  0.00, 
 07/06/04, 02:00,  10.4,  99,  14.0,  14.0,  12.7,   0.0,  0.00, 
 07/06/04, 03:00,  10.0,  99,  13.9,  14.0,  12.7,   0.0,  0.00, 
 07/06/04, 04:00,   9.9,  99,  13.7,  14.0,  12.6,   0.0,  0.00, 
 07/06/04, 05:00,   9.1,  99,  13.6,  13.9,  12.6,   0.0,  0.00, 
 07/06/04, 06:00,   9.1,  99,  13.4,  13.7,  12.8,   0.0,  0.21, 
 07/06/04, 07:00,  11.8,  91,  13.2,  13.8,  12.7,   0.0,  0.90, 
 07/06/04, 08:00,  13.1,  91,  13.3,  13.7,  12.8,   0.0,  1.71, 
 07/06/04, 09:00,  14.7,  83,  13.7,  13.6,  12.8,   0.0,  2.27, 
 07/06/04, 10:00,  14.9,  78,  14.1,  13.6,  12.8,   0.0,  1.96, 
 07/06/04, 11:00,  16.7,  73,  14.6,  13.6,  12.8,   0.0,  2.21, 
 07/06/04, 12:00,  17.7,  66,  15.2,  13.7,  12.8,   0.0,  2.23, 
 07/06/04, 13:00,  19.8,  58,  15.7,  13.8,  12.8,   0.0,  2.42, 
 07/06/04, 14:00,  17.5,  67,  16.1,  13.9,  12.7,   0.0,  1.16, 
 07/06/04, 15:00,  18.2,  65,  16.3,  14.1,  12.8,   0.0,  1.49, 
 07/06/04, 16:00,  17.4,  70,  16.5,  14.2,  12.9,   0.0,  0.84, 
 07/06/04, 17:00,  17.0,  74,  16.5,  14.4,  12.9,   0.0,  0.66, 
 07/06/04, 18:00,  15.3,  81,  16.5,  14.5,  12.8,   0.0,  0.10, 
 07/06/04, 19:00,  13.5,  94,  16.3,  14.6,  12.8,   0.0,  0.00, 
 07/06/04, 20:00,  12.6,  91,  16.1,  14.7,  12.8,   0.0,  0.00, 
 07/06/04, 21:00,  12.7,  83,  15.9,  14.7,  12.8,   0.0,  0.00, 
 07/06/04, 22:00,  11.9,  88,  15.6,  14.8,  12.8,   0.0,  0.00, 
 07/06/04, 23:00,  11.8,  87,  15.4,  14.7,  12.7,   0.0,  0.00, 
 07/06/05, 00:00,  11.1,  91,  15.2,  14.7,  13.0,   0.0,  0.00, 
 07/06/05, 01:00,  10.5,  92,  15.0,  14.7,  12.9,   0.0,  0.00, 
 07/06/05, 02:00,  10.2,  89,  14.7,  14.7,  12.9,   0.0,  0.00, 
 07/06/05, 03:00,  10.4,  87,  14.5,  14.5,  12.9,   0.0,  0.00, 
 07/06/05, 04:00,  10.0,  88,  14.4,  14.5,  12.9,   0.0,  0.00, 
 07/06/05, 05:00,   9.5,  92,  14.2,  14.5,  12.8,   0.0,  0.00, 
 07/06/05, 06:00,   9.7,  89,  14.0,  14.4,  13.0,   0.0,  0.18, 
 07/06/05, 07:00,  11.7,  84,  13.8,  14.2,  13.0,   0.0,  0.86, 
 07/06/05, 08:00,  11.9,  87,  13.9,  14.2,  13.1,   0.0,  1.04, 
 07/06/05, 09:00,  13.7,  84,  14.0,  14.2,  13.1,   0.0,  1.46, 
 07/06/05, 10:00,  15.1,  79,  14.3,  14.1,  13.1,   0.0,  2.38, 
 07/06/05, 11:00,  17.7,  70,  14.8,  14.1,  13.1,   0.0,  2.56, 
 07/06/05, 12:00,  17.7,  66,  15.4,  14.1,  13.1,   0.0,  2.27, 
 07/06/05, 13:00,  17.8,  67,  16.1,  14.2,  13.1,   0.0,  2.55, 
 07/06/05, 14:00,  17.6,  64,  16.6,  14.3,  13.1,   0.0,  2.05, 
 07/06/05, 15:00,  19.0,  61,  16.9,  14.4,  13.1,   0.0,  2.12, 
 07/06/05, 16:00,  19.0,  59,  17.0,  14.6,  13.0,   0.0,  2.44, 
 07/06/05, 17:00,  18.1,  64,  17.4,  14.7,  13.1,   0.0,  1.78, 
 07/06/05, 18:00,  15.7,  72,  17.5,  14.9,  13.1,   0.0,  0.77, 
 07/06/05, 19:00,  13.7,  80,  17.3,  15.0,  13.1,   0.0,  0.20, 
 07/06/05, 20:00,  12.4,  85,  17.0,  15.1,  13.2,   0.0,  0.00, 
 07/06/05, 21:00,  11.8,  89,  16.6,  15.2,  13.2,   0.0,  0.00, 
 07/06/05, 22:00,  11.9,  91,  16.2,  15.2,  13.2,   0.0,  0.00, 
 07/06/05, 23:00,  10.6,  95,  15.9,  15.2,  13.2,   0.0,  0.00, 
 07/06/06, 00:00,  10.2,  96,  15.5,  15.2,  13.2,   0.0,  0.00, 
 07/06/06, 01:00,  10.4,  99,  15.2,  15.2,  13.2,   0.0,  0.00, 
 07/06/06, 02:00,  10.1,  99,  15.0,  15.1,  13.3,   0.0,  0.00, 
 07/06/06, 03:00,  10.1,  98,  14.7,  15.0,  13.3,   0.0,  0.00, 
 07/06/06, 04:00,  10.5,  96,  14.5,  14.9,  13.3,   0.0,  0.00, 
 07/06/06, 05:00,   9.2,  99,  14.4,  14.8,  13.3,   0.0,  0.00, 
 07/06/06, 06:00,  10.7,  95,  14.1,  14.7,  13.3,   0.0,  0.20, 
 07/06/06, 07:00,  13.1,  84,  13.9,  14.6,  13.3,   0.0,  0.92, 
 07/06/06, 08:00,  15.2,  80,  14.0,  14.5,  13.4,   0.0,  1.72, 
 07/06/06, 09:00,  15.7,  79,  14.5,  14.4,  13.4,   0.0,  2.08, 
 07/06/06, 10:00,  16.4,  77,  15.0,  14.4,  13.4,   0.0,  1.98, 
 07/06/06, 11:00,  18.4,  73,  15.4,  14.4,  13.3,   0.0,  2.10, 
 07/06/06, 12:00,  17.3,  77,  16.0,  14.4,  13.4,   0.0,  2.14, 
 07/06/06, 13:00,  16.3,  80,  16.6,  14.5,  13.4,   0.0,  2.15, 
 07/06/06, 14:00,  15.8,  89,  17.0,  14.6,  13.4,   0.0,  1.34, 
 07/06/06, 15:00,  18.4,  75,  17.2,  14.8,  13.4,   0.0,  2.73, 
 07/06/06, 16:00,  19.7,  69,  17.4,  14.9,  13.4,   0.0,  2.06, 
 07/06/06, 17:00,  16.0,  79,  17.7,  15.1,  13.3,   0.0,  0.59, 
 07/06/06, 18:00,  13.3,  93,  17.6,  15.2,  13.5,   0.0,  0.25, 
 07/06/06, 19:00,  12.4,  99,  17.3,  15.3,  13.4,   0.0,  0.11, 
 07/06/06, 20:00,  12.5,  93,  17.0,  15.4,  13.5,   0.0,  0.00, 
 07/06/06, 21:00,  12.6,  96,  16.7,  15.5,  13.4,   0.0,  0.00, 
 07/06/06, 22:00,  12.7,  99,  16.5,  15.5,  13.4,   0.0,  0.00, 
 07/06/06, 23:00,  11.5,  99,  16.1,  15.5,  13.4,   0.0,  0.00, 
 07/06/07, 00:00,  11.4,  99,  15.8,  15.5,  13.5,   0.0,  0.00, 
 07/06/07, 01:00,  11.7,  99,  15.6,  15.4,  13.5,   0.0,  0.00, 
 07/06/07, 02:00,  11.5,  99,  15.3,  15.3,  13.5,   0.0,  0.00, 
 07/06/07, 03:00,  11.6,  99,  15.2,  15.3,  13.5,   0.0,  0.00, 
 07/06/07, 04:00,  11.6,  99,  15.0,  15.2,  13.5,   0.0,  0.00, 
 07/06/07, 05:00,  11.4,  99,  14.9,  15.1,  13.5,   0.0,  0.00, 
 07/06/07, 06:00,  11.6,  99,  14.8,  15.0,  13.5,   0.0,  0.17, 
 07/06/07, 07:00,  12.7,  99,  14.7,  15.0,  13.6,   0.0,  0.67, 
 07/06/07, 08:00,  12.3,  99,  14.7,  14.9,  13.5,   0.0,  0.79, 
 07/06/07, 09:00,  13.7,  97,  14.9,  14.8,  13.6,   0.0,  1.65, 
 07/06/07, 10:00,  16.5,  77,  15.3,  14.8,  13.6,   0.0,  2.97, 
 07/06/07, 11:00,  18.8,  62,  16.0,  14.8,  13.6,   0.0,  3.56, 
 07/06/07, 12:00,  19.6,  55,  17.1,  14.8,  13.5,   0.0,  3.48, 
 07/06/07, 13:00,  19.8,  47,  18.2,  14.9,  13.6,   0.0,  3.47, 
 07/06/07, 14:00,  19.1,  47,  18.8,  15.1,  13.5,   0.0,  2.26, 
 07/06/07, 15:00,  17.6,  60,  18.9,  15.4,  13.6,   0.0,  0.94, 
 07/06/07, 16:00,  19.3,  51,  18.8,  15.6,  13.6,   0.0,  1.64, 
 07/06/07, 17:00,  17.2,  64,  18.9,  15.8,  13.6,   0.0,  0.85, 
 07/06/07, 18:00,  16.1,  72,  18.7,  16.0,  13.6,   0.0,  0.29, 
 07/06/07, 19:00,  15.1,  68,  18.5,  16.2,  13.7,   0.0,  0.09, 
 07/06/07, 20:00,  14.4,  78,  18.1,  16.2,  13.7,   0.0,  0.00, 
 07/06/07, 21:00,  13.7,  90,  17.8,  16.3,  13.7,   0.0,  0.00, 
 07/06/07, 22:00,  13.2,  94,  17.4,  16.3,  13.7,   0.0,  0.00, 
 07/06/07, 23:00,  12.4,  93,  17.1,  16.3,  13.8,   0.0,  0.00, 
 07/06/08, 00:00,  11.1,  96,  16.8,  16.3,  13.7,   0.0,  0.00, 
 07/06/08, 01:00,   9.8,  99,  16.5,  16.2,  13.7,   0.0,  0.00, 
 07/06/08, 02:00,  10.6,  99,  16.1,  16.1,  13.8,   0.0,  0.00, 
 07/06/08, 03:00,  10.8,  91,  15.8,  15.9,  13.8,   0.0,  0.00, 
 07/06/08, 04:00,   9.3,  99,  15.5,  15.8,  13.8,   0.0,  0.00, 
 07/06/08, 05:00,  10.9,  90,  15.2,  15.7,  13.8,   0.0,  0.00, 
 07/06/08, 06:00,  12.1,  87,  15.0,  15.6,  13.8,   0.0,  0.18, 
 07/06/08, 07:00,  13.4,  84,  14.8,  15.6,  14.0,   0.0,  0.60, 
 07/06/08, 08:00,  15.3,  77,  14.9,  15.5,  14.0,   0.0,  1.50, 
 07/06/08, 09:00,  16.3,  84,  15.1,  15.4,  14.0,   0.0,  1.73, 
 07/06/08, 10:00,  17.5,  75,  15.6,  15.3,  14.0,   0.0,  2.62, 
 07/06/08, 11:00,  18.2,  69,  16.3,  15.2,  14.0,   0.0,  3.08, 
 07/06/08, 12:00,  17.1,  81,  17.0,  15.3,  13.9,   0.0,  2.16, 
 07/06/08, 13:00,  17.0,  82,  17.6,  15.3,  14.0,   0.0,  1.69, 
 07/06/08, 14:00,  16.8,  80,  17.7,  15.5,  14.0,   0.0,  1.58, 
 07/06/08, 15:00,  14.2,  94,  17.9,  15.6,  14.0,   0.0,  0.64, 
 07/06/08, 16:00,  12.3,  99,  17.8,  15.8,  14.0,   0.0,  0.18, 
 07/06/08, 17:00,  11.4,  99,  17.5,  15.9,  14.0,   0.0,  0.04, 
 07/06/08, 18:00,  11.4,  99,  16.9,  16.0,  14.0,   4.0,  0.12, 
 07/06/08, 19:00,  11.4,  99,  16.6,  16.0,  14.0,   3.5,  0.04, 
 07/06/08, 20:00,  10.3,  99,  16.0,  16.1,  14.0,   8.0,  0.00, 
 07/06/08, 21:00,   9.6,  99,  15.6,  16.0,  14.0,   4.5,  0.00, 
 07/06/08, 22:00,   9.3,  99,  15.2,  16.0,  14.1,   1.0,  0.00, 
 07/06/08, 23:00,   9.5,  99,  15.0,  15.9,  14.1,   0.5,  0.00, 
 07/06/09, 00:00,   9.7,  96,  14.8,  15.7,  14.2,   0.0,  0.00, 
 07/06/09, 01:00,   9.6,  99,  14.6,  15.6,  14.2,   0.0,  0.00, 
 07/06/09, 02:00,   9.5,  99,  14.5,  15.5,  14.3,   0.0,  0.00, 
 07/06/09, 03:00,  10.4,  94,  14.3,  15.4,  14.3,   0.0,  0.00, 
 07/06/09, 04:00,  10.3,  92,  14.2,  15.3,  14.3,   0.0,  0.00, 
 07/06/09, 05:00,   9.7,  95,  14.0,  15.1,  14.3,   0.0,  0.00, 
 07/06/09, 06:00,   9.3,  99,  13.9,  15.0,  14.3,   0.0,  0.05, 
 07/06/09, 07:00,   9.4,  99,  13.8,  14.9,  14.3,   1.0,  0.08, 
 07/06/09, 08:00,  10.3,  99,  13.7,  14.8,  14.3,   2.0,  0.25, 
 07/06/09, 09:00,  10.3,  99,  13.6,  14.7,  14.3,   0.0,  0.41, 
 07/06/09, 10:00,  13.6,  99,  13.6,  14.6,  14.3,   0.5,  1.50, 
 07/06/09, 11:00,  13.0,  92,  14.0,  14.5,  14.2,   0.0,  1.67, 
 07/06/09, 12:00,  14.7,  79,  14.5,  14.5,  14.2,   0.0,  2.71, 
 07/06/09, 13:00,  14.8,  79,  15.3,  14.5,  14.2,   0.0,  2.09, 
 07/06/09, 14:00,  14.6,  76,  15.9,  14.5,  14.2,   0.0,  2.40, 
 07/06/09, 15:00,  11.9,  99,  16.2,  14.6,  14.2,   0.5,  0.56, 
 07/06/09, 16:00,  10.9,  99,  16.2,  14.7,  14.1,   3.5,  0.10, 
 07/06/09, 17:00,   8.4,  99,  15.9,  14.9,  14.1,   7.0,  0.06, 
 07/06/09, 18:00,   8.3,  99,  15.4,  15.0,  14.1,   3.0,  0.27, 
 07/06/09, 19:00,   8.9,  99,  15.0,  15.1,  14.1,   0.0,  0.20, 
 07/06/09, 20:00,   9.1,  99,  14.8,  15.0,  14.1,   0.0,  0.01, 
 07/06/09, 21:00,   8.7,  99,  14.6,  15.0,  14.1,   0.0,  0.00, 
 07/06/09, 22:00,   8.3,  99,  14.4,  14.9,  14.1,   0.0,  0.00, 
 07/06/09, 23:00,   8.0,  99,  14.1,  14.8,  14.1,   0.0,  0.00, 
 07/06/10, 00:00,   7.3,  99,  13.8,  14.8,  14.1,   0.0,  0.00, 
 07/06/10, 01:00,   8.7,  99,  13.6,  14.7,  14.1,   0.0,  0.00, 
 07/06/10, 02:00,   7.7,  99,  13.4,  14.6,  14.1,   0.0,  0.00, 
 07/06/10, 03:00,   8.1,  99,  13.2,  14.5,  14.1,   0.0,  0.00, 
 07/06/10, 04:00,   7.6,  99,  13.1,  14.3,  14.1,   0.0,  0.00, 
 07/06/10, 05:00,   7.2,  99,  12.9,  14.1,  14.1,   0.0,  0.00, 
 07/06/10, 06:00,   8.4,  99,  12.6,  14.1,  14.0,   0.0,  0.13, 
 07/06/10, 07:00,   9.1,  99,  12.5,  13.9,  13.9,   0.5,  0.17, 
 07/06/10, 08:00,  10.3,  99,  12.5,  13.8,  14.0,   0.0,  0.65, 
 07/06/10, 09:00,  11.2,  96,  12.6,  13.7,  13.9,   0.0,  1.05, 
 07/06/10, 10:00,  11.7,  98,  12.9,  13.8,  14.0,   0.0,  0.73, 
 07/06/10, 11:00,  13.2,  86,  13.2,  13.7,  14.0,   0.0,  2.69, 
 07/06/10, 12:00,  11.5,  99,  13.8,  13.7,  13.9,   0.0,  1.21, 
 07/06/10, 13:00,  12.0,  99,  14.1,  13.7,  13.9,   0.5,  0.87, 
 07/06/10, 14:00,  12.1,  99,  14.4,  13.7,  13.9,   0.5,  0.87, 
 07/06/10, 15:00,  12.6,  99,  14.6,  13.8,  13.9,   0.0,  0.66, 
 07/06/10, 16:00,  11.9,  99,  14.7,  13.9,  13.9,   0.0,  0.26, 
 07/06/10, 17:00,  11.6,  99,  14.7,  14.0,  13.8,   0.0,  0.24, 
 07/06/10, 18:00,  11.5,  99,  14.6,  14.0,  13.8,   0.0,  0.17, 
 07/06/10, 19:00,  11.0,  99,  14.5,  14.0,  13.8,   0.0,  0.05, 
 07/06/10, 20:00,  10.4,  99,  14.4,  14.1,  13.8,   0.0,  0.00, 
 07/06/10, 21:00,   9.6,  99,  14.3,  14.2,  13.8,   0.0,  0.00, 
 07/06/10, 22:00,   9.8,  99,  14.1,  14.2,  13.7,   0.0,  0.00, 
 07/06/10, 23:00,  10.3,  99,  13.9,  14.1,  13.7,   0.0,  0.00, 
 07/06/11, 00:00,  10.3,  99,  13.8,  14.1,  13.7,   0.0,  0.00, 
 07/06/11, 01:00,  10.0,  99,  13.6,  14.1,  13.7,   0.0,  0.00, 
 07/06/11, 02:00,   9.5,  99,  13.5,  13.9,  13.6,   0.0,  0.00, 
 07/06/11, 03:00,   9.2,  99,  13.4,  13.9,  13.7,   0.0,  0.00, 
 07/06/11, 04:00,   9.6,  98,  13.2,  13.8,  13.7,   0.0,  0.00, 
 07/06/11, 05:00,  10.0,  98,  13.0,  13.9,  13.7,   0.0,  0.00, 
 07/06/11, 06:00,   9.5,  99,  12.9,  13.7,  13.7,   0.0,  0.14, 
 07/06/11, 07:00,  10.6,  99,  12.9,  13.7,  13.7,   0.0,  0.64, 
 07/06/11, 08:00,  11.2,  99,  13.0,  13.7,  13.7,   0.0,  1.38, 
 07/06/11, 09:00,  13.3,  95,  13.3,  13.6,  13.7,   0.0,  1.98, 
 07/06/11, 10:00,  14.3,  95,  13.8,  13.6,  13.7,   0.0,  2.20, 
 07/06/11, 11:00,  14.7,  91,  14.3,  13.6,  13.6,   0.0,  1.17, 
 07/06/11, 12:00,  17.1,  82,  14.8,  13.7,  13.6,   0.0,  2.85, 
 07/06/11, 13:00,  17.9,  80,  15.7,  13.8,  13.6,   0.0,  2.68, 
 07/06/11, 14:00,  18.2,  80,  16.3,  13.9,  13.6,   0.0,  2.43, 
 07/06/11, 15:00,  18.7,  76,  16.6,  14.1,  13.6,   0.0,  2.13, 
 07/06/11, 16:00,  18.2,  78,  16.8,  14.3,  13.6,   0.0,  1.11, 
 07/06/11, 17:00,  17.4,  81,  17.0,  14.5,  13.6,   0.0,  0.98, 
 07/06/11, 18:00,  16.3,  89,  17.1,  14.7,  13.6,   0.0,  0.15, 
 07/06/11, 19:00,  15.5,  89,  17.0,  14.8,  13.6,   0.0,  0.06, 
 07/06/11, 20:00,  15.1,  82,  16.8,  15.0,  13.6,   0.0,  0.00, 
 07/06/11, 21:00,  13.8,  90,  16.6,  15.1,  13.6,   0.0,  0.00, 
 07/06/11, 22:00,  13.3,  97,  16.3,  15.1,  13.6,   0.0,  0.00, 
 07/06/11, 23:00,  13.4,  96,  16.1,  15.1,  13.6,   0.0,  0.00, 
 07/06/12, 00:00,  12.1,  99,  15.9,  15.2,  13.6,   0.0,  0.00, 
 07/06/12, 01:00,  12.7,  99,  15.7,  15.2,  13.7,   0.0,  0.00, 
 07/06/12, 02:00,  11.9,  99,  15.5,  15.1,  13.7,   0.0,  0.00, 
 07/06/12, 03:00,  10.9,  99,  15.3,  15.1,  13.7,   0.0,  0.00, 
 07/06/12, 04:00,  11.8,  99,  15.0,  15.1,  13.7,   0.0,  0.00, 
 07/06/12, 05:00,  11.0,  99,  14.8,  15.0,  13.7,   0.0,  0.00, 
 07/06/12, 06:00,  11.5,  99,  14.6,  14.9,  13.8,   0.0,  0.19, 
 07/06/12, 07:00,  13.5,  92,  14.5,  14.9,  13.8,   0.0,  0.91, 
 07/06/12, 08:00,  15.4,  86,  14.6,  14.8,  13.8,   0.0,  1.65, 
 07/06/12, 09:00,  16.9,  82,  14.9,  14.7,  13.8,   0.0,  2.35, 
 07/06/12, 10:00,  18.3,  78,  15.6,  14.7,  13.8,   0.0,  2.69, 
 07/06/12, 11:00,  21.2,  73,  16.3,  14.7,  13.8,   0.0,  3.01, 
 07/06/12, 12:00,  20.4,  72,  17.1,  14.8,  13.8,   0.0,  2.33, 
 07/06/12, 13:00,  21.2,  70,  18.2,  14.9,  13.8,   0.0,  3.10, 
 07/06/12, 14:00,  19.4,  75,  18.7,  15.1,  13.8,   0.0,  0.92, 
 07/06/12, 15:00,  18.4,  74,  18.7,  15.4,  13.8,   0.0,  0.58, 
 07/06/12, 16:00,  19.2,  74,  18.6,  15.6,  13.9,   0.0,  0.54, 
 07/06/12, 17:00,  18.6,  76,  18.5,  15.8,  13.9,   0.0,  0.68, 
 07/06/12, 18:00,  17.8,  77,  18.5,  15.9,  13.9,   0.0,  0.56, 
 07/06/12, 19:00,  16.6,  80,  18.2,  16.0,  13.9,   0.0,  0.24, 
 07/06/12, 20:00,  14.9,  93,  17.9,  16.1,  13.9,   0.0,  0.00, 
 07/06/12, 21:00,  14.7,  91,  17.7,  16.2,  13.9,   0.0,  0.00, 
 07/06/12, 22:00,  14.1,  95,  17.3,  16.2,  13.9,   0.0,  0.00, 
 07/06/12, 23:00,  12.1,  99,  16.9,  16.2,  14.0,   0.0,  0.00, 
 07/06/13, 00:00,  12.9,  99,  16.7,  16.2,  14.0,   0.0,  0.00, 
 07/06/13, 01:00,  12.3,  99,  16.4,  16.1,  14.0,   0.0,  0.00, 
 07/06/13, 02:00,  11.6,  99,  16.0,  16.0,  14.1,   0.0,  0.00, 
 07/06/13, 03:00,  11.5,  99,  15.7,  16.0,  14.1,   0.0,  0.00, 
 07/06/13, 04:00,  10.4,  99,  15.6,  15.9,  14.1,   0.0,  0.00, 
 07/06/13, 05:00,   9.9,  99,  15.3,  15.8,  14.1,   0.0,  0.00, 
 07/06/13, 06:00,  10.8,  99,  15.1,  15.7,  14.2,   0.0,  0.22, 
 07/06/13, 07:00,  15.3,  71,  14.8,  15.6,  14.2,   0.0,  0.92, 
 07/06/13, 08:00,  16.0,  79,  15.0,  15.5,  14.2,   0.0,  1.71, 
 07/06/13, 09:00,  17.7,  70,  15.3,  15.4,  14.2,   0.0,  2.05, 
 07/06/13, 10:00,  18.3,  77,  15.9,  15.3,  14.2,   0.0,  2.93, 
 07/06/13, 11:00,  19.9,  70,  16.9,  15.3,  14.2,   0.0,  3.27, 
 07/06/13, 12:00,  21.1,  68,  18.2,  15.4,  14.3,   0.0,  3.48, 
 07/06/13, 13:00,  20.8,  68,  19.5,  15.5,  14.3,   0.0,  2.91, 
 07/06/13, 14:00,  20.3,  73,  20.0,  15.7,  14.3,   0.0,  2.28, 
 07/06/13, 15:00,  19.9,  75,  20.1,  16.0,  14.2,   0.0,  2.13, 
 07/06/13, 16:00,  21.0,  70,  20.2,  16.3,  14.2,   0.0,  1.61, 
 07/06/13, 17:00,  19.5,  74,  20.2,  16.5,  14.2,   0.0,  1.37, 
 07/06/13, 18:00,  17.9,  76,  20.1,  16.7,  14.3,   0.0,  0.74, 
 07/06/13, 19:00,  16.3,  87,  19.8,  16.9,  14.4,   0.0,  0.27, 
 07/06/13, 20:00,  15.5,  89,  19.4,  17.0,  14.3,   0.0,  0.00, 
 07/06/13, 21:00,  14.2,  99,  18.9,  17.1,  14.3,   0.0,  0.00, 
 07/06/13, 22:00,  14.1,  99,  18.5,  17.1,  14.3,   0.0,  0.00, 
 07/06/13, 23:00,  13.5,  99,  18.1,  17.1,  14.4,   0.0,  0.00, 
 07/06/14, 00:00,  13.2,  99,  17.8,  17.1,  14.5,   0.0,  0.00, 
 07/06/14, 01:00,  12.9,  98,  17.6,  17.0,  14.4,   0.0,  0.00, 
 07/06/14, 02:00,  12.8,  94,  17.2,  16.9,  14.5,   0.0,  0.00, 
 07/06/14, 03:00,  12.4,  94,  17.0,  16.9,  14.5,   0.0,  0.00, 
 07/06/14, 04:00,  13.9,  82,  16.7,  16.8,  14.5,   0.0,  0.00, 
 07/06/14, 05:00,  12.4,  93,  16.6,  16.7,  14.5,   0.0,  0.00, 
 07/06/14, 06:00,  13.1,  90,  16.4,  16.6,  14.6,   0.0,  0.04, 
 07/06/14, 07:00,  14.0,  86,  16.3,  16.5,  14.6,   0.0,  0.30, 
 07/06/14, 08:00,  14.8,  89,  16.3,  16.4,  14.6,   0.0,  0.79, 
 07/06/14, 09:00,  13.9,  99,  16.4,  16.3,  14.6,   0.0,  0.53, 
 07/06/14, 10:00,  13.5,  97,  16.5,  16.2,  14.7,   0.5,  0.77, 
 07/06/14, 11:00,  14.5,  99,  16.6,  16.2,  14.7,   1.0,  1.12, 
 07/06/14, 12:00,  15.3,  99,  16.7,  16.1,  14.7,   0.5,  1.15, 
 07/06/14, 13:00,  15.3,  99,  17.0,  16.1,  14.7,   0.5,  1.07, 
 07/06/14, 14:00,  14.7,  99,  17.3,  16.1,  14.7,   1.0,  0.60, 
 07/06/14, 15:00,  15.1,  99,  17.4,  16.2,  14.7,   0.0,  0.53, 
 07/06/14, 16:00,  14.6,  99,  17.5,  16.2,  14.7,   0.5,  0.43, 
 07/06/14, 17:00,  14.6,  99,  17.3,  16.3,  14.7,   0.0,  0.31, 
 07/06/14, 18:00,  14.5,  99,  17.3,  16.3,  14.7,   0.5,  0.13, 
 07/06/14, 19:00,  14.3,  99,  17.1,  16.3,  14.7,   0.0,  0.04, 
 07/06/14, 20:00,  14.1,  99,  17.0,  16.3,  14.7,   0.5,  0.00, 
 07/06/14, 21:00,  14.0,  99,  16.9,  16.3,  14.7,   0.0,  0.00, 
 07/06/14, 22:00,  13.9,  99,  16.8,  16.3,  14.7,   0.0,  0.00, 
 07/06/14, 23:00,  13.8,  99,  16.6,  16.3,  14.7,   0.5,  0.00, 
 07/06/15, 00:00,  14.1,  99,  16.5,  16.3,  14.7,   1.0,  0.00, 
 07/06/15, 01:00,  14.1,  99,  16.4,  16.2,  14.7,   1.5,  0.00, 
 07/06/15, 02:00,  14.1,  99,  16.3,  16.2,  14.7,   1.0,  0.00, 
 07/06/15, 03:00,  14.4,  99,  16.1,  16.1,  14.8,   0.0,  0.00, 
 07/06/15, 04:00,  14.4,  99,  16.0,  16.1,  14.8,   0.5,  0.00, 
 07/06/15, 05:00,  14.0,  99,  15.9,  16.0,  14.8,   0.5,  0.00, 
 07/06/15, 06:00,  13.7,  99,  15.9,  16.0,  14.8,   0.5,  0.02, 
 07/06/15, 07:00,  13.5,  99,  15.8,  15.9,  14.8,   0.5,  0.09, 
 07/06/15, 08:00,  13.1,  99,  15.7,  15.9,  14.8,   0.0,  0.21, 
 07/06/15, 09:00,  13.0,  99,  15.7,  15.7,  14.8,   0.0,  0.37, 
 07/06/15, 10:00,  13.1,  99,  15.7,  15.8,  14.8,   0.0,  0.39, 
 07/06/15, 11:00,  13.2,  99,  15.8,  15.8,  14.8,   0.0,  0.34, 
 07/06/15, 12:00,  14.1,  99,  15.8,  15.7,  14.8,   0.0,  0.83, 
 07/06/15, 13:00,  13.9,  99,  16.1,  15.7,  14.8,   0.0,  1.40, 
 07/06/15, 14:00,  13.3,  99,  16.4,  15.7,  14.8,   0.0,  0.56, 
 07/06/15, 15:00,  13.4,  99,  16.4,  15.7,  14.8,   0.0,  0.38, 
 07/06/15, 16:00,  13.3,  99,  16.4,  15.7,  14.8,   0.0,  0.24, 
 07/06/15, 17:00,  12.7,  99,  16.4,  15.8,  14.8,   0.0,  0.16, 
 07/06/15, 18:00,  12.5,  99,  16.2,  15.8,  14.8,   0.0,  0.12, 
 07/06/15, 19:00,  12.3,  99,  16.1,  15.8,  14.8,   0.0,  0.04, 
 07/06/15, 20:00,  12.1,  99,  15.9,  15.7,  14.8,   0.0,  0.00, 
 07/06/15, 21:00,  11.7,  99,  15.8,  15.8,  14.8,   0.0,  0.00, 
 07/06/15, 22:00,  11.3,  99,  15.6,  15.7,  14.8,   0.0,  0.00, 
 07/06/15, 23:00,  10.9,  99,  15.4,  15.7,  14.8,   0.0,  0.00, 
 07/06/16, 00:00,  10.4,  99,  15.3,  15.6,  14.8,   0.0,  0.00, 
 07/06/16, 01:00,  10.0,  99,  15.1,  15.6,  14.8,   0.0,  0.00, 